Location: ????????
(55.0559°N, 39.1270°E)
Time: 18:15:53
(UTC+00:00)

SMAP - Pass Details

Date: 15 November 2025
Orbit: 681 x 683 km, 98.1° (Epoch: 14 December)

Event Time Altitude Azimuth Distance (km) Brightness Sun altitude
Rises 03:35:03 0° 17° (NNE) 3,061 6.4 -11.3°
Reaches altitude 10° 03:37:21 10° 22° (NNE) 2,140 5.7 -11.0°
Maximum altitude 03:41:57 55° 100° (E) 827 3.9 -10.4°
Drops below altitude 10° 03:46:30 10° 179° (S) 2,123 5.9 -9.8°
Sets 03:48:47 0° 184° (S) 3,033 6.6 -9.5°
